Current weather by "City, St" or "zip code"  
 

Current Conditions: Mount Carmel, Mount Carmel Municipal Airport, IL

Overcast


50.0 F

Last Updated on Oct 24 2020, 7:55 pm CDT
Humidity: 59%
Wind Speed: N 6.9 mph
Barometer 30.11 in
Dewpoint: 36.3 F
Visibility: 10.00 mi
Precip: --
Heat Index: NA
Wind Chill: 47 F
Current conditions at:

Mount Carmel, Mount Carmel Municipal Airport, IL (KAJG)

Lat: 38.60928 Lon: 87.72508

Local Radar Image active severe weather and emergency alerts image image weather storm and storm spotter reports image weather observation monitoring service image
Local
Radar
Active
Alerts
Storm Reports Obs
Monitoring

Sign-up For Email & Text Message Weather Alert Notification Services



Advertise Here

Observation History for Mount Carmel, Mount Carmel Municipal Airport, IL


Time Wind
(mph)
Vis
(mi)
Weather Precip (in) Temperature (F) Relative
Humidity
Wind
Chill
(F)
Heat
Index
(F)
Pressure
Air Dwpt altimeter
(in)
sea level
(mb)
Rmks
7:55 pm CDT N 6.9 10.00 Overcast -- 50.0 36.3 59% 47 NA 30.11 M
6:55 pm CDT NE 4.6 10.00 Overcast -- 51.0 36.0 57% 50 NA 30.10 M
6:35 pm CDT NE 5.8 10.00 Overcast -- 51.0 35.6 56% 49 NA 30.10 M
5:55 pm CDT NE 6.9 10.00 Overcast -- 51.0 34.7 53% 48 NA 30.10 M
4:55 pm CDT NE 10.4 10.00 Mostly Cloudy -- 53.0 34.5 51% 50 NA 30.10 M
4:35 pm CDT NE 10.4 10.00 Partly Cloudy -- 53.0 35.2 52% 50 NA 30.10 M
3:55 pm CDT NE 10.4 10.00 Mostly Cloudy -- 53.0 35.4 51% 50 NA 30.11 M
2:55 pm CDT NE 9.2 10.00 Overcast -- 53.0 35.4 52% 50 NA 30.12 M
1:55 pm CDT NE 6.9 10.00 Overcast -- 51.0 35.8 56% 48 NA 30.14 M
12:35 pm CDT NE 8.1 10.00 Overcast -- 49.0 35.8 60% 46 NA 30.19 M
11:55 am CDT E 10.4 10.00 Overcast -- 48.0 35.2 62% 43 NA 30.20 M
10:55 am CDT NE 12.7 G 17.3 10.00 Overcast -- 46.0 35.4 66% 40 NA 30.22 M
9:50 am CDT NE 4.6 10.00 Overcast -- 45.0 37.0 74% 43 NA 30.24 M
8:55 am CDT NE 6.9 10.00 Overcast -- 45.0 35.6 70% 41 NA 30.24 M
7:55 am CDT NE 6.9 10.00 Overcast -- 45.0 35.6 71% 41 NA 30.23 M
6:55 am CDT NE 5.8 10.00 Overcast -- 44.0 35.6 72% 41 NA 30.23 M
6:35 am CDT N 6.9 10.00 Overcast -- 44.0 35.8 72% 40 NA 30.23 M
5:55 am CDT N 9.2 10.00 Overcast -- 44.0 36.7 75% 39 NA 30.23 M
4:55 am CDT N 8.1 10.00 Overcast -- 44.0 37.4 78% 39 NA 30.22 M
3:55 am CDT N 10.4 10.00 Overcast -- 44.0 36.9 75% 38 NA 30.23 M
2:55 am CDT NE 9.2 10.00 Overcast -- 45.0 37.4 76% 40 NA 30.23 M
1:55 am CDT N 10.4 10.00 Overcast -- 45.0 37.6 76% 40 NA 30.22 M
12:55 am CDT N 13.8 G 18.4 10.00 Overcast -- 45.0 39.0 80% 39 NA 30.22 M
11:55 pm CDT N 11.5 10.00 Overcast -- 46.0 40.5 83% 41 NA 30.21 M

Regional Weather Observation


Mount Carmel, Mount Carmel Municipal Airport, IL (KAJG)

Overcast
50.0 F

Olney-Noble Airport, IL (KOLY)

Overcast
50.0 F

Flora Municipal Airport, IL (KFOA)

Overcast
50.0 F

Robinson Municipal Airport, IL (KRSV)

Overcast
49.0 F

Fairfield, Fairfield Municipal Airport, IL (KFWC)

Overcast
49.0 F

Carmi Municipal Airport, IL (KCUL)

Overcast
52.0 F